Location: Karlsruhe
(49.0131°N, 8.3874°E)
Time: 23:50:26
(UTC+01:00)

ISS - Pass Details

Date: 15 November 2017
Orbit: 402 x 407 km, 51.6° (Epoch: 21 November)

Event Time Altitude Azimuth Distance (km) Brightness Sun altitude
Exits shadow 04:55:21 23° 112° (ESE) 905 -1.5 -26.2°
Drops below altitude 10° 04:56:43 10° 112° (ESE) 1,453 -0.2 -26.0°
Sets 04:58:47 0° 112° (ESE) 2,310 1.1 -25.6°
